| time (UTC) | temp F | wind direction | speed MPH | gust MPH | rain 1hr in | rain 24hr in | rain mn in | humidity % | barometer mb |
| 20260504221559 | 58 | 0.0 | 0.0 | 0.00 | 0.08 | 0.00 | 67 | 1004.5 | |
| 20260504220101 | 59 | 0.0 | 0.0 | 0.00 | 0.08 | 0.00 | 64 | 1004.2 | |
| 20260504214658 | 59 | 0.0 | 0.0 | 0.00 | 0.10 | 0.00 | 64 | 1004.2 | |
| 20260504213130 | 60 | 0.0 | 0.0 | 0.00 | 0.10 | 0.00 | 62 | 1003.9 | |
| 20260504211605 | 60 | 0.0 | 0.0 | 0.00 | 0.10 | 0.00 | 62 | 1003.9 | |
| 20260504210057 | 59 | 0.0 | 0.0 | 0.00 | 0.10 | 0.00 | 62 | 1003.9 | |
| 20260504204557 | 59 | 0.0 | 0.0 | 0.00 | 0.13 | 0.00 | 62 | 1003.7 | |
| 20260504203117 | 60 | 0.0 | 0.0 | 0.00 | 0.13 | 0.00 | 61 | 1003.7 | |
| 20260504201555 | 60 | 0.0 | 0.0 | 0.00 | 0.13 | 0.00 | 62 | 1003.9 | |
| 20260504200054 | 60 | 0.0 | 0.0 | 0.00 | 0.13 | 0.00 | 63 | 1003.9 | |
| 20260504194603 | 59 | 0.0 | 0.0 | 0.00 | 0.16 | 0.00 | 63 | 1003.9 | |
| 20260504193100 | 59 | 0.0 | 0.0 | 0.00 | 0.16 | 0.00 | 63 | 1003.9 | |
| 20260504191553 | 57 | 0.0 | 0.0 | 0.00 | 0.16 | 0.00 | 64 | 1004.1 | |
| 20260504190113 | 56 | 0.0 | 0.0 | 0.00 | 0.16 | 0.00 | 70 | 1004.5 | |
| 20260504184559 | 55 | 0.0 | 0.0 | 0.00 | 0.24 | 0.00 | 65 | 1004.5 | |
| 20260504183050 | 56 | 0.0 | 0.0 | 0.00 | 0.24 | 0.00 | 61 | 1004.4 | |
| 20260504181549 | 56 | 0.0 | 0.0 | 0.00 | 0.24 | 0.00 | 62 | 1004.2 | |
| 20260504180049 | 55 | 0.0 | 0.0 | 0.00 | 0.24 | 0.00 | 62 | 1004.0 | |
| 20260504174551 | 57 | 0.0 | 0.0 | 0.00 | 0.39 | 0.00 | 61 | 1003.5 | |
| 20260504173052 | 59 | 0.0 | 0.0 | 0.00 | 0.39 | 0.00 | 52 | 1003.4 | |
| 20260504171547 | 59 | 0.0 | 0.0 | 0.00 | 0.39 | 0.00 | 48 | 1003.3 | |
| 20260504081521 | 35 | 0.0 | 0.0 | 0.00 | 0.88 | 0.00 | 90 | 1003.8 | |
| 20260504044601 | 41 | 0.0 | 0.0 | 0.00 | 0.96 | 0.00 | 93 | 1002.2 | |
| 20260504043050 | 41 | 0.0 | 0.0 | 0.00 | 0.96 | 0.00 | 93 | 1002.0 | |
| 20260504041547 | 41 | 0.0 | 0.0 | 0.00 | 0.96 | 0.00 | 93 | 1001.7 | |
| 20260504040045 | 41 | 0.0 | 0.0 | 0.01 | 0.96 | 0.00 | 93 | 1001.6 | |
| 20260504034552 | 42 | 0.0 | 0.0 | 0.01 | 0.96 | 0.96 | 93 | 1001.5 | |
| 20260504033053 | 42 | 0.0 | 0.0 | 0.01 | 0.96 | 0.96 | 93 | 1001.4 | |
| 20260504031544 | 42 | 0.0 | 0.0 | 0.01 | 0.96 | 0.96 | 93 | 1001.4 | |
| 20260504030043 | 42 | 0.0 | 0.0 | 0.00 | 0.95 | 0.95 | 93 | 1001.1 | |
| 20260504024546 | 42 | 0.0 | 0.0 | 0.00 | 0.95 | 0.95 | 93 | 1001.0 | |
| 20260504023042 | 42 | 0.0 | 0.0 | 0.00 | 0.95 | 0.95 | 93 | 1001.0 | |
| 20260504021543 | 42 | 0.0 | 0.0 | 0.00 | 0.95 | 0.95 | 93 | 1000.9 | |
| 20260504020041 | 42 | 0.0 | 0.0 | 0.01 | 0.95 | 0.95 | 93 | 1000.9 | |
| 20260504014541 | 42 | 0.0 | 0.0 | 0.01 | 0.95 | 0.95 | 93 | 1000.5 | |
| 20260504013043 | 42 | 0.0 | 0.0 | 0.02 | 0.95 | 0.95 | 93 | 1000.6 | |
| 20260504011540 | 42 | 0.0 | 0.0 | 0.02 | 0.95 | 0.95 | 93 | 1000.3 | |
| 20260504010051 | 42 | 0.0 | 0.0 | 0.02 | 0.94 | 0.94 | 93 | 1000.2 | |
| 20260504004541 | 42 | 0.0 | 0.0 | 0.03 | 0.94 | 0.94 | 93 | 1000.0 | |
| 20260504003039 | 42 | 0.0 | 0.0 | 0.02 | 0.93 | 0.93 | 93 | 999.8 | |
| 20260504001559 | 41 | 0.0 | 0.0 | 0.03 | 0.93 | 0.93 | 93 | 999.6 | |
| 20260504000041 | 41 | 0.0 | 0.0 | 0.02 | 0.92 | 0.92 | 93 | 999.4 | |
| 20260503234537 | 41 | 0.0 | 0.0 | 0.02 | 0.91 | 0.91 | 93 | 999.3 | |
| 20260503233036 | 41 | 0.0 | 0.0 | 0.02 | 0.91 | 0.91 | 93 | 999.2 | |
| 20260503231536 | 41 | 0.0 | 0.0 | 0.02 | 0.90 | 0.90 | 93 | 999.1 | |
| 20260503230039 | 41 | 0.0 | 0.0 | 0.01 | 0.89 | 0.89 | 93 | 999.1 | |
| 20260503224532 | 41 | 0.0 | 0.0 | 0.02 | 0.89 | 0.89 | 93 | 998.8 | |
| 20260503223032 | 41 | 0.0 | 0.0 | 0.02 | 0.89 | 0.89 | 93 | 998.7 |